Carolina, PR

2:33 PM AST on December 07, 2016 (GMT -0400)
Luis Munoz Marin International

Weather History for TJSJ - March, 2014

Change the Weather History Date:

Tuesday, March 4, 2014

  Actual Average Record
Temperature  
Mean Temperature 78 °F 78 °F  
Max Temperature 84 °F 84 °F 92 °F (2010)
Min Temperature 72 °F 73 °F 62 °F (1960)
Degree Days  
Heating Degree Days 0 0  
Month to date heating degree days 0 0  
Since 1 July heating degree days 0 0  
Cooling Degree Days 13 13  
Month to date cooling degree days 55 52  
Year to date cooling degree days 943 803  
Growing Degree Days 28 (Base 50)    
Moisture  
Dew Point 68 °F    
Average Humidity 76    
Maximum Humidity 100    
Minimum Humidity 51    
Precipitation  
Precipitation 0.27 in 0.06 in 2.27 in (1927)
Month to date precipitation 0.27 0.26  
Year to date precipitation 6.31 6.41  
Sea Level Pressure  
Sea Level Pressure 30.01 in    
Wind  
Wind Speed 8 mph (ENE)    
Max Wind Speed 22 mph    
Max Gust Speed 25 mph    
Visibility 10 miles    
Events Rain    
T = Trace of Precipitation, MM = Missing Value Source: NWS Daily Summary

Daily Weather History Graph

Daily Weather History Graph

Search for Another Location

Airport or City:

Trip Planner

Search our weather history database for the weather conditions in past years. The results will help you decide how hot, cold, wet, or windy it might be!

Date:

Astronomy

Mar. 04, 2014 Rise Set
Actual Time 6:40 AM AST 6:30 PM AST
Civil Twilight 6:18 AM AST 6:52 PM AST
Nautical Twilight 5:53 AM AST 7:18 PM AST
Astronomical Twilight 5:28 AM AST 7:43 PM AST
Moon 8:58 AM AST (3/4) 9:55 PM AST (3/4)
Length of Visible Light 12h 33m
Length of Day
11h 50m
Waxing Crescent, 14% of the Moon is Illuminated
Mar 4
Waxing Crescent
Mar 8
First Quarter
Mar 16
Full
Mar 23
Last Quarter
Mar 30
New

Hourly Weather History & Observations

Time (AST) Temp. Heat Index Dew Point Humidity Pressure Visibility Wind Dir Wind Speed Gust Speed Precip Events Conditions
12:56 AM 75.9 °F - 66.9 °F 74% 30.03 in 10.0 mi Calm Calm - N/A   Partly Cloudy
1:56 AM 73.9 °F - 68.0 °F 82% 30.01 in 10.0 mi Calm Calm - N/A   Partly Cloudy
2:56 AM 73.9 °F - 66.9 °F 79% 29.99 in 10.0 mi Calm Calm - N/A   Partly Cloudy
3:56 AM 73.9 °F - 68.0 °F 82% 29.98 in 10.0 mi Calm Calm - N/A   Partly Cloudy
4:56 AM 73.0 °F - 66.9 °F 81% 29.98 in 10.0 mi Calm Calm - N/A   Scattered Clouds
5:56 AM 72.0 °F - 66.9 °F 84% 29.99 in 10.0 mi Calm Calm - N/A   Scattered Clouds
6:56 AM 73.0 °F - 66.9 °F 81% 30.01 in 10.0 mi Calm Calm - N/A   Partly Cloudy
7:56 AM 75.0 °F - 66.9 °F 76% 30.03 in 10.0 mi Calm Calm - N/A   Partly Cloudy
8:56 AM 78.1 °F - 66.0 °F 66% 30.05 in 10.0 mi East 5.8 mph - N/A   Scattered Clouds
9:56 AM 80.1 °F 81.7 °F 64.0 °F 58% 30.06 in 10.0 mi East 11.5 mph - N/A   Scattered Clouds
10:56 AM 81.0 °F 82.5 °F 64.0 °F 56% 30.07 in 10.0 mi ENE 16.1 mph - N/A   Scattered Clouds
11:56 AM 82.0 °F 83.0 °F 62.1 °F 51% 30.05 in 10.0 mi NE 16.1 mph - N/A   Scattered Clouds
12:56 PM 82.9 °F 85.0 °F 66.0 °F 56% 30.02 in 10.0 mi ENE 18.4 mph 25.3 mph N/A   Partly Cloudy
1:56 PM 82.9 °F 84.4 °F 64.0 °F 53% 29.99 in 10.0 mi ENE 18.4 mph - N/A   Scattered Clouds
2:56 PM 82.0 °F 84.9 °F 68.0 °F 62% 29.97 in 10.0 mi ENE 17.3 mph 25.3 mph N/A   Scattered Clouds
3:56 PM 82.9 °F 85.8 °F 68.0 °F 60% 29.97 in 10.0 mi ENE 17.3 mph - N/A   Scattered Clouds
4:56 PM 81.0 °F 83.8 °F 68.0 °F 65% 29.98 in 10.0 mi ENE 17.3 mph - N/A   Scattered Clouds
5:56 PM 80.1 °F 83.2 °F 70.0 °F 71% 29.99 in 10.0 mi ENE 12.7 mph - N/A   Scattered Clouds
6:56 PM 79.0 °F - 69.1 °F 72% 29.99 in 10.0 mi ENE 15.0 mph - N/A   Scattered Clouds
7:56 PM 75.0 °F - 73.0 °F 94% 30.02 in 6.0 mi SSE 9.2 mph - 0.04 in Rain Light Rain
8:56 PM 73.9 °F - 73.0 °F 97% 30.03 in 8.0 mi Variable 5.8 mph - 0.20 in Rain Light Rain
9:56 PM 75.0 °F - 74.5 °F 98% 30.04 in 10.0 mi Variable 3.5 mph - 0.02 in   Scattered Clouds
10:56 PM 75.9 °F - 73.8 °F 93% 30.05 in 10.0 mi ESE 4.6 mph - 0.01 in   Mostly Cloudy
11:56 PM 75.9 °F - 71.1 °F 85% 30.05 in 10.0 mi ESE 3.5 mph - N/A   Mostly Cloudy